Regional Weather Roundup
Issued by NWS

Home | Current Version | Previous Version | Text Only | Print | Product List | Glossary Off
Versions: 1 2 3 4 5 6 7 8 9 10 11 12 13 14 15 16 17 18 19 20 21 22 23 24 25 26 27 28

000
ASUS45 KCYS 240310
RWRWY

WYOMING REGIONAL WEATHER ROUNDUP
NATIONAL WEATHER SERVICE CHEYENNE WY
900 PM MDT THU MAR 23 2017

NOTE:  "FAIR" INDICATES FEW OR NO CLOUDS BELOW 12,000 FEET
WITH NO SIGNIFICANT WEATHER AND/OR OBSTRUCTIONS TO VISIBILITY.

WYZ001-240400-
YELLOWSTONE NATIONAL PARK

CITY           SKY/WX    TMP DP  RH WIND       PRES   REMARKS
LK YELLOWSTONE   N/A     30  20  66 CALM      30.01R
W YELLOWSTONE  NOT AVBL

$$
WYZ002>013-054>058-071-098>099-240400-
NORTHERN WYOMING

CITY           SKY/WX    TMP DP  RH WIND       PRES   REMARKS
JACKSON        PTCLDY    37  28  70 NW5       29.96R WCI  34
CODY           MOCLDY    41  33  73 SW10      29.98R
GREYBULL       CLOUDY    46  34  62 NW7       29.93R
WORLAND        FAIR      40  37  89 SW6       29.95R
SHERIDAN       CLOUDY    43  35  73 NW7       29.95S
BUFFALO        CLOUDY    42  33  70 W8        29.97R
GILLETTE       CLOUDY    40 N/A N/A NE5       29.96R
HULETT         MOCLDY    37  36  93 CALM      29.96R
NEWCASTLE      CLOUDY    45  30  57 NE18      29.86R

$$
WYZ014>020-022>026-101>103-240400-
CENTRAL WYOMING

CITY           SKY/WX    TMP DP  RH WIND       PRES   REMARKS
BIG PINEY      FAIR      34  30  85 N13       29.94R WCI  25
PINEDALE       FAIR      34  32  93 NW10      29.95R WCI  26
DUBOIS         CLOUDY    32  32 100 CALM      29.97R
LANDER         LGT RAIN  37  36  96 NW7       29.96S WCI  32
RIVERTON       CLOUDY    37  36  96 NW7       29.96S WCI  32
CASPER         CLOUDY    39  34  82 NE15      29.96R WCI  31
DOUGLAS        CLOUDY    39  33  79 N18       29.93R WCI  30

$$
WYZ021-027>030-104>119-240400-
SOUTHERN WYOMING

CITY           SKY/WX    TMP DP  RH WIND       PRES   REMARKS
EVANSTON       FAIR      33  28  81 SW5       29.99R WCI  29
FORT BRIDGER   CLOUDY    36  36 100 W8        30.00R WCI  29
ROCK SPRINGS   CLOUDY    38  30  73 NE10      29.92S WCI  31
DIXON            N/A     42  38  84 E3        29.87S
RAWLINS        CLOUDY    36  30  79 N13       29.91R WCI  27
SARATOGA       CLOUDY    37  32  81 N14G21    29.88R WCI  29
LARAMIE        FAIR      39  29  67 N18       29.82R WCI  30
CHEYENNE       CLOUDY    38  34  85 N26G36    29.81R WCI  26
TORRINGTON     CLOUDY    45  38  76 N17G25    29.81R
PINE BLUFFS    CLOUDY    43  41  93 N29G39    29.77S

$$




USA.gov is the U.S. government's official web portal to all federal, state and local government web resources and services.